Location: Le Petit-Vavre
(46.5081°N, 1.5239°E)
Time: 14:11:34
(UTC+00:00)

COSMOS 2428 - Pass Details

Date: 03 March 2021
Orbit: 845 x 858 km, 70.9° (Epoch: 18 April)

Event Time Altitude Azimuth Distance (km) Brightness Sun altitude
Rises 19:16:26 0° 176° (S) 3,390 5.7 -16.9°
Reaches altitude 10° 19:19:05 10° 166° (SSE) 2,460 4.9 -17.3°
Maximum altitude 19:24:02 32° 105° (ESE) 1,409 3.3 -18.1°
Enters shadow 19:24:45 31° 90° (E) 1,439 3.3 -18.3°
